GEFSCGP_con_prob3kmehi_198.txt.gz
EHI
0 0 0 0 0 0 0 0 0 1 1 1 2 5 8 8 7 7 9 14 18 22 27 31 36 39 43 51 56 57 55 52 51 51 50 49 47 44 38 32 31 29 25 23
0 0 0 0 0 0 0 0 0 0 0 1 2 5 6 6 6 7 10 14 17 22 27 33 37 39 44 51 56 57 55 52 50 49 48 47 47 43 37 33 32 28 24 22
0 0 0 0 0 0 0 0 0 0 0 1 2 4 6 6 6 7 10 11 14 21 29 35 38 38 41 48 53 55 55 53 49 47 45 45 43 39 34 33 30 26 21 19
0 0 0 0 0 0 0 0 0 0 0 0 1 2 6 9 8 7 8 9 13 22 30 35 37 38 39 42 47 51 54 53 49 46 44 42 38 33 30 29 27 23 19 17
0 0 0 0 0 0 0 0 0 0 0 0 0 1 6 10 11 11 10 11 17 25 30 32 36 39 39 38 41 46 49 50 47 44 41 38 33 29 27 27 24 20 18 16
0 0 0 0 0 0 0 0 0 0 0 0 0 1 5 10 14 16 15 16 21 26 28 30 34 40 41 39 38 40 43 44 42 38 35 32 28 25 26 25 21 18 17 16
0 0 0 0 0 0 0 0 0 0 0 0 0 2 6 11 16 18 18 18 21 23 24 26 32 38 41 41 41 40 38 38 36 33 30 27 24 23 23 23 19 16 15 15
0 0 0 0 0 0 0 0 0 0 0 0 0 3 9 15 20 23 22 21 21 19 18 21 28 33 37 40 42 39 34 32 31 28 26 25 24 22 20 19 16 13 12 11
0 0 0 0 0 0 0 0 0 0 0 0 0 3 11 17 21 24 24 22 21 18 16 17 22 27 32 35 36 32 28 27 27 24 22 20 20 20 19 17 13 11 9 8
0 0 0 0 0 0 0 0 0 0 0 0 0 2 9 16 17 17 18 17 16 15 13 14 18 23 27 28 27 25 21 20 21 19 16 15 16 17 18 16 13 11 9 7
0 0 0 0 0 0 0 0 0 0 0 0 0 1 7 12 12 9 9 9 10 10 10 11 15 19 21 20 20 19 15 13 14 14 13 13 14 15 16 15 14 12 10 8
0 0 0 0 0 0 0 0 0 0 0 0 0 1 5 9 8 6 7 7 7 7 7 8 9 13 14 14 15 14 11 8 7 7 10 12 13 14 13 12 12 12 11 9
0 0 0 0 0 0 0 0 0 0 0 0 0 0 2 5 6 7 9 9 7 6 6 5 5 6 8 10 12 13 10 6 3 3 5 8 10 11 10 9 9 9 8 7
0 0 0 0 0 0 0 0 0 0 0 0 0 0 1 3 4 7 9 9 7 5 4 4 4 4 6 9 10 10 8 4 2 1 2 4 6 8 7 5 5 5 4 2
0 0 0 0 0 0 0 0 0 0 0 0 0 1 3 3 4 6 6 7 6 4 4 3 3 4 6 8 9 8 6 4 1 1 2 2 4 5 4 4 4 3 1 0
0 0 0 0 0 0 0 0 0 0 0 0 0 2 4 5 4 4 4 5 5 5 4 3 3 4 6 7 8 7 6 4 2 1 1 1 2 3 3 4 4 2 0 0
0 0 0 0 0 0 0 0 0 0 0 0 1 3 4 4 4 4 4 5 5 5 5 4 3 4 5 6 7 6 6 5 3 2 1 0 1 1 2 3 3 2 1 0
0 0 0 0 0 0 0 0 0 0 0 0 2 3 3 5 5 4 5 5 5 5 5 4 3 3 4 6 5 5 6 6 4 3 2 1 0 0 1 2 3 3 2 1
0 0 0 0 0 0 0 0 0 0 1 1 1 1 2 4 5 4 4 3 2 2 2 2 2 2 3 5 5 5 6 5 4 3 2 1 0 0 1 2 2 3 3 2
0 0 0 0 0 0 0 0 0 0 1 2 2 1 1 2 3 3 2 1 0 0 0 0 0 0 2 3 4 5 5 4 3 3 2 1 0 0 1 2 3 3 2 2
0 0 0 0 0 0 0 0 0 0 1 3 3 3 2 2 2 2 2 1 0 0 0 0 0 0 0 1 2 4 4 2 2 2 1 0 0 0 0 1 2 2 2 2
0 0 0 0 0 0 0 0 0 0 1 2 3 3 3 2 1 2 2 1 0 0 0 0 0 0 0 0 0 1 1 1 1 1 0 0 0 0 0 0 1 1 1 2
0 0 0 0 0 0 0 0 1 1 1 3 3 2 2 1 1 2 3 1 0 0 0 0 0 0 0 0 0 0 0 0 0 0 0 0 0 0 0 1 0 0 1 1
0 0 0 0 0 0 0 0 1 2 3 3 2 1 0 0 1 2 3 1 0 0 0 0 0 0 0 0 0 0 0 0 0 0 0 0 0 0 1 2 1 0 0 0
0 0 0 0 0 0 0 0 1 2 3 3 2 1 0 0 0 1 3 2 0 0 0 0 0 0 0 0 1 1 0 0 0 0 0 0 0 0 1 2 1 0 0 0
0 0 0 0 0 0 0 0 1 2 3 3 2 1 0 0 0 1 3 3 1 0 0 0 0 0 1 1 1 1 0 0 0 0 0 0 0 0 1 1 1 0 0 0

GEFSCGP_con_prob3kmehi_204.txt.gz
EHI
0 0 0 0 0 0 0 0 0 0 0 3 7 8 6 3 2 2 2 5 11 17 19 19 20 24 28 31 33 34 34 32 31 30 28 26 23 22 22 21 19 15 12 11
0 0 0 0 0 0 0 0 0 0 1 3 6 6 5 3 2 1 2 5 11 15 18 19 20 23 27 29 31 31 31 31 30 28 27 25 21 19 19 18 16 14 12 10
0 0 0 0 0 0 0 0 0 0 1 2 3 3 3 3 2 1 2 7 13 15 16 17 19 22 25 28 28 28 28 27 26 25 25 23 18 15 15 13 11 10 10 9
0 0 0 0 0 0 0 0 0 0 0 1 1 1 2 3 3 3 5 9 14 15 14 15 17 19 23 24 24 25 25 23 22 21 21 19 16 12 10 8 7 7 7 7
0 0 0 0 0 0 0 0 0 0 0 0 0 0 1 2 3 5 7 9 12 13 12 13 15 17 19 19 20 22 24 22 19 18 16 13 10 8 6 4 4 5 5 4
0 0 0 0 0 0 0 0 0 0 0 0 0 0 2 2 3 6 9 10 11 11 11 12 14 15 15 15 17 20 22 20 17 15 12 8 5 3 3 2 3 4 3 2
0 0 0 0 0 0 0 0 0 0 0 0 0 0 1 2 3 6 8 10 11 11 10 11 13 14 14 14 16 18 17 15 13 10 7 4 1 1 1 1 2 3 3 3
0 0 0 0 0 0 0 0 0 0 0 0 0 0 1 2 3 5 6 8 10 10 8 8 10 12 13 13 14 15 13 11 9 6 5 2 0 0 0 0 1 1 2 3
0 0 0 0 0 0 0 0 0 0 0 0 0 0 2 3 3 3 4 5 6 7 5 4 5 8 11 12 12 11 9 6 4 4 5 3 1 0 0 0 0 0 1 2
0 0 0 0 0 0 0 0 0 0 0 0 0 0 1 2 2 1 2 3 3 3 2 2 2 3 5 8 8 6 3 2 2 3 3 2 0 0 0 0 0 0 0 1
0 0 0 0 0 0 0 0 0 0 0 0 0 0 0 0 0 0 1 2 1 1 1 1 1 1 2 4 5 3 1 0 2 2 1 0 0 0 0 0 0 0 0 0
0 0 0 0 0 0 0 0 0 0 0 0 0 0 0 0 0 0 0 0 0 0 0 0 0 0 1 3 3 2 1 0 1 1 0 0 0 0 0 0 0 0 0 0
0 0 0 0 0 0 0 0 0 0 0 0 0 0 0 0 0 0 0 0 0 0 0 0 0 0 2 3 3 2 1 0 0 0 0 0 0 0 0 0 0 0 0 0
0 0 0 0 0 0 0 0 0 0 0 0 0 0 0 0 0 0 0 0 0 0 1 1 0 0 1 2 2 1 0 0 0 0 0 0 0 0 0 0 0 0 0 0
0 0 0 0 0 0 0 0 0 0 0 0 0 0 0 0 0 0 0 0 0 1 2 2 1 0 1 1 1 0 0 0 0 0 0 0 0 0 0 0 0 0 0 0
0 0 0 0 0 0 0 0 0 0 0 0 0 0 0 0 0 0 0 0 1 1 3 3 2 0 0 0 0 0 0 0 0 0 0 0 0 0 0 0 0 0 0 0
0 0 0 0 0 0 0 0 0 0 0 0 0 0 0 0 0 0 0 0 1 2 2 2 1 0 0 0 0 0 0 0 0 0 0 0 0 0 0 0 0 0 0 0
0 0 0 0 0 0 0 0 0 0 0 0 0 0 0 0 0 0 0 0 1 1 1 1 0 0 0 0 0 0 0 0 0 0 0 0 0 0 0 0 0 0 0 0
0 0 0 0 0 0 0 0 0 0 0 0 0 0 0 0 0 0 0 0 0 0 0 0 0 0 0 0 0 0 0 0 0 0 0 0 0 0 0 0 0 0 0 0
0 0 0 0 0 0 0 0 0 0 0 0 0 0 0 0 0 0 0 0 0 0 0 0 0 0 0 0 0 0 0 0 0 0 0 0 0 0 0 0 0 0 0 0
0 0 0 0 0 0 0 0 0 0 0 0 0 0 0 0 0 0 0 0 0 0 0 0 0 0 0 0 0 0 0 0 0 0 0 0 0 0 0 0 0 0 0 0
0 0 0 0 0 0 0 0 0 0 0 0 0 0 0 0 0 0 0 0 0 0 0 0 0 0 0 0 0 0 0 0 0 0 0 0 0 0 0 0 0 0 0 0
0 0 0 0 0 0 0 0 0 0 0 0 0 0 0 0 0 0 0 0 0 0 0 0 0 0 0 0 0 0 0 0 0 0 0 0 0 0 0 0 0 0 0 0
0 0 0 0 0 0 0 0 0 0 0 0 0 0 0 0 0 0 0 0 0 0 0 0 0 0 0 0 0 0 0 0 0 0 0 0 0 0 0 0 0 0 0 0
0 0 0 0 0 0 0 0 0 0 0 0 0 0 0 0 0 0 0 0 0 0 0 0 0 0 0 0 0 0 0 0 0 0 0 0 0 0 0 0 0 0 0 0
0 0 0 0 0 0 0 0 0 0 0 0 0 0 0 0 0 0 0 0 0 0 0 0 0 0 0 0 0 0 0 0 0 0 0 0 0 0 0 0 0 0 0 0

GEFSCGP_con_prob3kmehi_210.txt.gz
EHI
0 0 0 0 0 0 0 0 0 0 0 0 1 2 1 0 0 0 1 1 1 3 6 9 10 11 12 12 13 13 13 11 10 12 13 10 7 5 4 3 3 4 5 7
0 0 0 0 0 0 0 0 0 0 0 0 1 1 1 0 0 1 2 2 3 5 7 9 10 10 10 10 11 12 11 10 10 11 12 10 6 4 3 2 2 3 3 4
0 0 0 0 0 0 0 0 0 0 0 0 0 0 0 0 0 2 2 2 3 6 8 8 8 9 8 8 8 9 9 10 10 10 10 9 6 3 2 2 1 1 1 1
0 0 0 0 0 0 0 0 0 0 0 0 0 0 0 0 0 1 2 3 3 5 7 6 6 6 7 7 7 6 7 9 11 10 10 9 6 4 3 2 0 0 0 0
0 0 0 0 0 0 0 0 0 0 0 0 0 0 0 0 0 1 2 2 2 4 6 6 5 5 7 7 5 5 6 9 10 10 9 8 7 5 3 1 0 0 0 0
0 0 0 0 0 0 0 0 0 0 0 0 0 0 0 0 0 0 1 1 1 3 5 7 7 8 7 6 4 3 5 7 9 10 9 8 6 4 3 1 0 0 0 0
0 0 0 0 0 0 0 0 0 0 0 0 0 0 0 0 0 0 0 0 1 2 4 7 9 9 8 7 4 3 4 6 8 9 8 7 6 4 2 1 0 0 0 0
0 0 0 0 0 0 0 0 0 0 0 0 0 0 0 0 0 0 0 0 1 1 2 3 5 6 7 7 6 4 4 5 7 6 6 5 4 2 1 0 0 0 0 0
0 0 0 0 0 0 0 0 0 0 0 0 0 0 0 0 0 0 0 0 0 0 0 0 1 2 3 5 4 3 2 3 3 3 2 3 2 1 0 0 0 0 0 0
0 0 0 0 0 0 0 0 0 0 0 0 0 0 0 0 0 0 0 0 0 1 0 0 0 0 1 1 1 1 1 1 1 1 0 1 1 0 0 0 0 0 0 0
0 0 0 0 0 0 0 0 0 0 0 0 0 0 0 0 0 0 0 0 0 0 0 0 0 0 0 0 0 0 0 0 0 0 0 0 0 0 0 0 0 0 0 0
0 0 0 0 0 0 0 0 0 0 0 0 0 0 0 0 0 0 0 0 0 0 0 0 0 0 0 0 0 0 0 0 0 0 0 0 0 0 0 0 0 0 0 0
0 0 0 0 0 0 0 0 0 0 0 0 0 0 0 0 0 0 0 0 0 0 0 0 0 0 0 0 0 0 0 0 0 0 0 0 0 0 0 0 0 0 0 0
0 0 0 0 0 0 0 0 0 0 0 0 0 0 0 0 0 0 0 0 0 0 0 0 0 0 0 0 0 0 0 0 0 0 0 0 0 0 0 0 0 0 0 0
0 0 0 0 0 0 0 0 0 0 0 0 0 0 0 0 0 0 0 0 0 0 0 0 0 0 0 0 0 0 0 0 0 0 0 0 0 0 0 0 0 0 0 0
0 0 0 0 0 0 0 0 0 0 0 0 0 0 0 0 0 0 0 0 0 0 0 0 0 0 0 0 0 0 0 0 0 0 0 0 0 0 0 0 0 0 0 0
0 0 0 0 0 0 0 0 0 0 0 0 0 0 0 0 0 0 0 0 0 0 0 0 0 0 0 0 0 0 0 0 0 0 0 0 0 0 0 0 0 0 0 0
0 0 0 0 0 0 0 0 0 0 0 0 0 0 0 0 0 0 0 0 0 0 0 0 0 0 0 0 0 0 0 0 0 0 0 0 0 0 0 0 0 0 0 0
0 0 0 0 0 0 0 0 0 0 0 0 0 0 0 0 0 0 0 0 0 0 0 0 0 0 0 0 0 0 0 0 0 0 0 0 0 0 0 0 0 0 0 0
0 0 0 0 0 0 0 0 0 0 0 0 0 0 0 0 0 0 0 0 0 0 0 0 0 0 0 0 0 0 0 0 0 0 0 0 0 0 0 0 0 0 0 0
0 0 0 0 0 0 0 0 0 0 0 0 0 0 0 0 0 0 0 0 0 0 0 0 0 0 0 0 0 0 0 0 0 0 0 0 0 0 0 0 0 0 0 0
0 0 0 0 0 0 0 0 0 0 0 0 0 0 0 0 0 0 0 0 0 0 0 0 0 0 0 0 0 0 0 0 0 0 0 0 0 0 0 0 0 0 0 0
0 0 0 0 0 0 0 0 0 0 0 0 0 0 0 0 0 0 0 0 0 0 0 0 0 0 0 0 0 0 0 0 0 0 0 0 0 0 0 0 0 0 0 0
0 0 0 0 0 0 0 0 0 0 0 0 0 0 0 0 0 0 0 0 0 0 0 0 0 0 0 0 0 0 0 0 0 0 0 0 0 0 0 0 0 0 0 0
0 0 0 0 0 0 0 0 0 0 0 0 0 0 0 0 0 0 0 0 0 0 0 0 0 0 0 0 0 0 0 0 0 0 0 0 0 0 0 0 0 0 0 0
0 0 0 0 0 0 0 0 0 0 0 0 0 0 0 0 0 0 0 0 0 0 0 0 0 0 0 0 0 0 0 0 0 0 0 0 0 0 0 0 0 0 0 0

GEFSCGP_con_prob3kmehi_216.txt.gz
EHI
0 0 0 0 0 0 0 0 0 0 0 0 0 1 2 2 1 1 4 6 7 8 10 12 14 16 18 19 17 15 16 20 22 20 21 21 20 18 16 16 17 16 15 15
0 0 0 0 0 0 0 0 0 0 0 0 0 2 3 3 1 1 2 4 6 7 10 12 13 15 17 18 17 15 15 18 19 18 19 19 16 14 13 13 15 14 13 13
0 0 0 0 0 0 0 0 0 0 0 0 0 1 2 3 3 2 2 3 5 7 9 11 12 14 15 15 14 13 14 16 16 16 17 15 12 10 8 9 10 11 11 11
0 0 0 0 0 0 0 0 0 0 0 0 0 0 2 3 3 3 3 2 4 6 8 10 11 12 12 11 11 12 13 14 15 16 17 15 13 10 8 7 9 10 9 9
0 0 0 0 0 0 0 0 0 0 0 0 0 0 1 2 2 3 3 2 3 5 8 10 12 12 11 9 10 12 12 12 14 15 15 15 13 11 9 8 10 10 9 8
0 0 0 0 0 0 0 0 0 0 0 0 0 0 1 1 2 2 3 3 3 4 8 10 13 14 12 11 11 11 10 11 13 14 13 13 12 10 9 9 10 10 8 7
0 0 0 0 0 0 0 0 0 0 0 0 0 0 0 1 1 1 2 4 4 4 6 10 14 15 14 11 10 8 7 7 10 12 11 10 9 9 9 10 9 8 7 6
0 0 0 0 0 0 0 0 0 0 0 0 0 0 0 0 1 2 3 3 4 3 4 8 12 13 11 8 5 4 3 3 6 9 9 9 8 9 9 9 8 6 5 4
0 0 0 0 0 0 0 0 0 0 0 0 0 0 0 1 2 3 3 2 2 2 3 6 9 9 7 4 2 1 2 3 4 5 6 7 8 9 8 7 5 5 4 2
0 0 0 0 0 0 0 0 0 0 0 0 0 0 1 2 2 3 2 2 1 1 2 5 6 6 5 3 2 3 4 3 3 3 4 5 7 7 6 4 4 4 3 3
0 0 0 0 0 0 0 0 0 0 0 0 0 0 1 1 1 1 2 2 1 0 2 4 4 3 3 3 2 3 3 2 2 3 4 4 3 3 3 3 4 3 4 4
0 0 0 0 0 0 0 0 0 0 0 0 0 0 0 0 0 0 1 1 1 0 1 3 3 2 2 3 2 1 1 1 1 3 4 3 2 1 2 3 4 4 3 4
0 0 0 0 0 0 0 0 0 0 0 0 0 0 0 0 0 0 0 0 0 1 2 3 2 2 2 1 1 0 0 0 1 2 3 3 2 2 3 4 5 5 4 4
0 0 0 0 0 0 0 0 0 0 0 0 0 0 0 0 0 0 0 0 0 1 2 2 1 1 1 0 0 0 0 0 0 1 1 1 1 2 2 3 4 5 5 5
0 0 0 0 0 0 0 0 0 0 0 0 0 0 0 1 1 0 0 0 0 0 1 1 0 0 0 0 0 0 0 0 0 0 0 0 0 1 1 1 2 4 5 6
0 0 0 0 0 0 0 0 0 0 0 0 0 0 0 1 1 0 0 0 0 0 0 0 0 0 0 0 0 0 0 0 0 0 0 0 0 0 0 0 0 2 4 5
0 0 0 0 0 0 0 0 0 0 0 0 0 0 0 1 1 0 0 0 1 0 0 0 0 0 0 0 0 0 0 0 0 0 0 0 0 0 0 0 0 0 2 3
0 0 0 0 0 0 0 0 0 0 0 0 0 0 0 0 0 0 0 0 0 0 0 0 0 0 0 0 0 0 0 0 0 0 0 0 0 0 0 0 0 0 0 1
0 0 0 0 0 0 0 0 0 0 0 0 0 0 0 0 0 0 0 0 0 0 0 0 0 0 0 0 0 0 0 0 0 0 0 0 0 0 0 0 0 0 0 0
0 0 0 0 0 0 0 0 0 0 0 0 0 0 0 0 0 0 0 0 0 0 0 0 0 0 0 0 0 0 0 0 0 0 0 0 0 0 0 0 0 0 0 0
0 0 0 0 0 0 0 0 0 0 0 0 0 0 0 0 0 0 0 0 0 0 0 0 0 0 0 0 0 0 0 0 0 0 0 0 0 0 0 0 0 0 0 0
0 0 0 0 0 0 0 0 0 0 0 0 0 0 0 0 0 0 0 0 0 0 0 0 0 0 0 0 0 0 0 0 0 0 0 0 0 0 0 0 0 0 0 0
0 0 0 0 0 0 0 0 0 0 0 0 0 0 0 0 0 0 0 0 0 0 0 0 0 0 0 0 0 0 0 0 0 0 0 0 0 0 0 0 0 0 0 0
0 0 0 0 0 0 0 0 0 0 0 0 0 0 0 0 0 0 0 0 0 0 0 0 0 0 0 0 0 0 0 0 0 0 0 0 0 0 0 0 0 0 0 0
0 0 0 0 0 0 0 0 0 0 0 0 0 0 0 0 0 0 0 0 0 0 0 0 0 0 0 0 0 0 0 0 0 0 0 0 0 0 0 0 0 0 0 0
0 0 0 0 0 0 0 0 0 0 0 0 0 0 0 0 0 0 0 0 0 0 0 0 0 0 0 0 0 0 0 0 0 0 0 0 0 0 0 0 0 0 0 0

GEFSCGP_con_prob3kmehi_222.txt.gz
EHI
0 0 0 0 0 0 0 0 0 0 1 2 3 3 2 3 5 5 6 8 13 18 24 25 23 24 27 29 30 31 34 36 33 29 27 27 27 27 24 24 25 22 21 22
1 0 0 0 0 0 0 0 0 1 2 2 3 3 3 5 7 7 6 9 13 19 24 26 25 25 25 26 28 30 33 35 33 28 23 22 23 24 23 24 23 20 19 19
1 1 1 0 0 0 0 0 0 1 1 2 2 3 4 6 9 8 8 10 15 21 26 29 28 25 24 25 24 27 31 33 30 24 19 17 18 20 21 21 20 17 15 14
1 0 0 0 0 0 0 0 0 0 0 0 1 2 4 7 8 8 8 11 16 23 26 29 30 26 25 24 23 25 29 30 26 21 17 15 16 17 17 16 15 14 12 11
0 0 0 0 0 0 0 0 0 0 0 0 0 1 3 5 7 7 8 11 17 21 24 27 28 27 26 25 23 24 27 28 24 19 17 17 15 13 13 14 14 13 11 10
0 0 0 0 0 0 0 0 0 0 0 0 0 1 2 4 6 7 8 12 17 20 21 22 24 26 25 23 21 20 23 25 23 18 16 16 13 10 11 13 14 13 11 9
0 0 0 0 0 0 0 0 0 0 0 0 0 1 4 6 7 9 11 15 19 20 20 20 22 23 23 21 17 16 18 21 21 17 14 12 10 9 10 12 13 12 10 8
0 0 0 0 0 0 0 0 0 0 0 0 1 4 7 9 10 11 14 19 20 19 18 18 19 19 19 17 15 14 15 18 17 14 12 11 9 8 9 11 12 12 10 8
0 0 0 0 0 0 0 0 0 0 0 1 2 5 9 10 10 10 13 16 15 14 13 14 14 15 15 14 13 13 13 13 11 8 7 8 8 8 8 10 11 10 9 8
0 0 0 0 0 0 0 0 0 0 0 0 1 4 7 9 8 7 8 10 9 9 10 10 10 12 14 14 12 11 11 9 6 4 3 4 5 6 7 8 9 7 6 6
0 0 0 0 0 0 0 0 0 0 0 0 0 3 6 8 7 5 5 8 8 8 9 8 9 11 13 12 9 9 8 7 4 3 2 2 3 4 5 6 6 5 4 4
0 0 0 0 0 0 0 0 0 0 0 0 1 5 8 8 7 4 4 7 8 9 8 7 8 10 10 8 5 4 4 3 3 3 3 3 3 3 4 4 4 4 4 4
0 0 0 0 0 0 0 0 0 0 0 0 1 5 7 7 5 4 5 7 7 6 5 5 7 7 6 4 2 1 1 1 1 1 2 3 3 3 3 3 3 3 4 4
0 0 0 0 0 0 0 0 0 0 0 0 0 2 4 4 3 4 6 7 6 4 3 3 4 3 2 1 0 0 0 0 0 0 1 1 2 3 3 3 3 3 3 3
0 0 0 0 0 0 0 0 0 0 0 0 0 0 1 2 2 3 5 6 5 2 1 1 1 1 0 0 0 0 0 0 0 0 0 0 1 2 3 3 3 2 2 1
0 0 0 0 0 0 0 0 0 0 1 0 0 0 0 2 3 2 2 2 3 2 1 0 0 0 0 0 0 0 0 0 0 0 0 0 0 1 1 2 2 2 1 0
1 0 0 0 0 0 0 1 0 0 0 0 0 0 0 2 2 1 0 1 2 3 2 1 0 0 0 0 0 0 0 0 0 0 0 0 0 0 0 1 1 1 0 1
1 0 0 0 0 0 0 0 0 0 1 1 1 1 0 1 1 0 0 0 1 2 3 2 1 0 0 0 0 0 0 0 0 0 0 0 0 0 0 0 0 1 1 2
1 0 0 0 0 0 0 0 0 0 1 2 2 1 0 0 0 0 0 0 0 1 3 2 1 0 0 0 0 0 0 0 0 0 0 0 0 0 0 0 1 2 3 3
0 0 0 0 0 0 0 0 0 0 1 1 2 2 1 0 0 0 0 1 0 1 2 2 1 0 0 0 0 0 0 0 0 0 0 0 0 0 0 1 1 3 3 3
0 0 0 0 0 0 0 0 0 0 0 0 1 2 1 0 0 0 0 0 0 1 2 2 1 0 0 0 0 0 0 0 0 0 0 0 0 0 1 2 3 3 2 1
0 0 0 0 0 0 0 0 0 0 0 0 1 2 1 0 0 0 0 0 0 1 2 2 1 0 0 0 0 0 0 0 0 0 0 0 0 1 1 2 2 2 1 0
0 0 0 0 0 0 0 0 0 0 0 0 1 2 1 0 0 0 0 0 0 0 1 1 0 0 1 1 0 0 0 1 1 1 1 1 1 2 2 1 1 1 0 0
0 0 0 0 0 0 0 0 0 0 0 0 0 1 1 0 0 0 0 0 0 0 0 0 0 0 1 1 0 0 0 1 2 2 1 1 2 2 1 1 0 0 0 0
0 0 0 0 0 0 0 0 0 0 0 0 0 0 0 0 0 0 0 0 0 0 0 0 0 0 1 1 0 0 0 1 1 1 1 1 1 1 0 0 0 0 0 0
0 0 0 0 0 0 0 0 0 0 0 0 0 0 0 0 0 0 0 0 0 0 0 0 0 0 0 0 0 0 0 0 0 0 1 0 0 0 0 0 0 0 0 0

GEFSCGP_con_prob3kmehi_228.txt.gz
EHI
1 1 0 0 0 0 0 0 0 0 0 0 1 1 2 3 4 5 4 6 9 9 7 6 6 7 7 7 8 8 8 11 12 11 10 7 4 2 4 4 4 5 6 6
1 0 0 0 0 0 0 0 0 0 0 1 2 3 5 6 6 6 6 8 10 11 9 9 10 11 10 10 10 10 9 10 11 11 9 6 4 4 5 5 5 5 5 5
0 0 0 0 0 0 0 0 0 0 0 1 2 3 4 5 5 6 7 8 11 13 12 14 16 16 15 14 12 12 10 9 9 10 8 6 6 6 6 5 5 5 4 5
0 0 0 0 0 0 0 0 0 0 0 0 1 1 2 2 3 5 6 7 10 14 15 17 19 19 15 13 12 11 9 8 8 8 8 7 7 6 5 5 5 4 3 3
0 0 0 0 0 0 0 0 0 0 0 0 0 1 0 1 3 5 5 6 9 12 15 17 18 17 12 9 9 8 6 6 6 6 6 8 8 7 5 5 5 4 2 2
0 0 0 0 0 0 0 0 0 0 0 0 0 0 0 1 3 5 5 6 7 9 11 12 13 12 8 6 6 5 4 4 4 4 5 7 8 7 6 6 4 3 3 2
0 0 0 0 0 0 0 0 0 0 0 0 0 0 0 1 3 5 6 6 5 6 7 8 8 8 7 6 6 5 4 3 3 3 4 5 6 6 6 5 3 2 3 3
0 0 0 0 0 0 0 0 0 0 0 0 0 0 0 1 3 5 6 6 5 4 5 6 5 6 6 7 7 6 4 3 3 3 3 4 4 4 4 3 1 1 2 3
0 0 0 0 0 0 0 0 0 0 0 0 0 0 0 1 3 4 5 4 3 2 3 3 2 3 5 6 6 6 5 4 3 1 1 3 3 3 2 1 0 1 2 3
0 0 0 0 0 0 0 0 0 0 0 0 0 0 0 1 2 3 2 1 1 0 1 1 1 2 3 4 5 4 3 3 2 1 1 2 3 2 1 0 0 1 2 3
0 0 0 0 0 0 0 0 0 0 0 0 0 0 0 0 1 1 0 0 0 0 0 0 0 2 3 3 3 1 1 1 1 0 1 1 1 1 0 0 0 1 3 3
0 0 0 0 0 0 0 0 0 0 0 0 0 0 0 0 0 0 1 1 0 0 0 0 0 1 2 2 1 0 0 0 0 0 0 0 0 0 0 0 0 1 2 2
0 0 0 0 0 0 0 0 0 0 0 0 0 0 0 0 0 1 1 1 0 0 0 0 0 0 1 1 0 0 0 0 0 0 0 0 0 0 0 0 0 1 1 1
0 0 0 0 0 0 0 0 0 0 0 0 0 0 0 0 0 1 1 0 0 0 0 0 0 0 0 0 0 0 0 0 0 0 0 0 0 0 0 0 0 0 0 0
0 0 0 0 0 0 0 0 0 0 0 0 0 0 0 0 0 0 0 1 1 0 0 0 0 0 0 0 0 0 0 0 0 0 0 0 0 0 0 0 0 0 0 0
0 0 0 0 0 0 0 0 0 0 0 0 0 0 0 0 0 0 1 2 2 1 0 0 0 0 0 0 0 0 0 0 0 0 0 0 0 0 0 0 0 0 0 0
0 0 0 0 0 0 0 0 0 0 0 0 0 0 0 0 0 0 1 2 3 2 1 0 0 0 0 0 0 0 0 0 0 0 0 0 0 0 0 0 0 0 0 0
0 0 0 0 0 0 0 0 0 0 0 0 0 0 0 0 0 0 0 1 2 1 1 0 0 0 0 0 0 0 0 0 0 0 0 0 0 0 0 0 0 0 0 0
0 0 0 0 0 0 0 0 0 0 0 0 0 0 0 0 0 0 0 0 0 0 0 0 0 0 0 0 0 0 0 0 0 0 0 0 0 0 0 0 0 0 0 0
0 0 0 0 0 0 0 0 0 0 0 0 0 0 0 0 0 0 0 0 0 0 0 0 0 0 0 0 0 0 0 0 0 0 0 0 0 0 0 0 0 0 0 0
0 0 0 0 0 0 0 0 0 0 0 0 0 0 0 0 0 0 0 0 0 0 0 0 0 0 0 0 0 0 0 0 0 0 0 0 0 0 0 0 0 0 0 0
0 0 0 0 0 0 0 0 0 0 0 0 0 0 0 0 0 0 0 0 0 0 0 0 0 0 0 0 0 0 0 0 0 0 0 0 0 0 0 0 0 0 0 0
0 0 0 0 0 0 0 0 0 0 0 0 0 0 0 0 0 0 0 0 0 0 0 0 0 0 0 0 0 0 0 0 0 0 0 0 0 0 0 0 0 0 0 0
0 0 0 0 0 0 0 0 0 0 0 0 0 0 0 0 0 0 0 0 0 0 0 0 0 0 0 0 0 0 0 0 0 0 0 0 0 0 0 0 0 0 0 0
0 0 0 0 0 0 0 0 0 0 0 0 0 0 0 0 0 0 0 0 0 0 0 0 0 0 0 0 0 0 0 0 0 0 0 0 0 0 0 0 0 0 0 0
0 0 0 0 0 0 0 0 0 0 0 0 0 0 0 0 0 0 0 0 0 0 0 0 0 0 0 0 0 0 0 0 0 0 0 0 0 0 0 0 0 0 0 0

GEFSCGP_con_prob3kmehi_234.txt.gz
EHI
0 0 0 0 0 0 0 0 0 0 0 0 0 0 0 1 4 6 7 6 5 4 4 5 5 5 6 6 4 3 2 1 1 2 2 1 0 0 0 0 1 3 4 4
0 0 0 0 0 0 0 0 0 0 0 0 0 0 0 2 3 5 5 4 4 4 4 6 7 6 6 5 4 3 2 1 0 1 2 2 1 0 0 0 1 2 3 4
0 0 0 0 0 0 0 0 0 0 0 0 0 0 0 1 2 2 2 1 2 2 4 7 8 7 6 5 4 3 2 1 0 1 3 3 2 2 1 1 1 1 2 2
0 0 0 0 0 0 0 0 0 0 0 0 0 0 0 0 1 1 1 1 2 3 5 7 8 7 6 5 4 4 2 1 1 2 3 3 3 3 3 2 1 0 1 1
0 0 0 0 0 0 0 0 0 0 0 0 0 0 0 0 0 1 2 3 4 4 5 6 6 6 5 4 4 3 2 2 2 3 3 3 3 4 3 2 1 0 0 0
0 0 0 0 0 0 0 0 0 0 0 0 0 0 0 0 0 2 3 3 4 4 4 4 4 4 4 3 3 3 2 2 3 3 3 3 3 2 3 2 1 0 0 0
0 0 0 0 0 0 0 0 0 0 0 0 0 0 0 0 0 2 3 3 3 3 3 4 4 4 4 4 3 2 1 1 2 3 3 2 1 1 2 2 1 0 0 0
0 0 0 0 0 0 0 0 0 0 0 0 0 0 0 0 0 1 3 3 3 2 3 4 5 5 5 4 4 3 1 0 1 2 1 1 0 1 2 2 1 0 0 0
0 0 0 0 0 0 0 0 0 0 0 0 0 0 0 0 0 1 2 3 2 1 1 3 3 3 3 3 3 3 2 1 0 0 0 0 0 1 2 2 1 0 0 0
0 0 0 0 0 0 0 0 0 0 0 0 0 0 0 0 0 1 2 3 2 1 0 1 1 1 1 1 2 3 2 1 0 0 0 0 0 1 2 2 1 0 0 0
0 0 0 0 0 0 0 0 0 0 0 0 0 0 0 0 0 1 2 3 2 1 0 0 0 0 0 1 1 1 1 0 0 0 0 0 0 1 2 2 1 0 0 0
0 0 0 0 0 0 0 0 0 0 0 0 0 0 0 0 0 0 1 2 2 1 0 0 0 0 0 0 0 0 0 0 0 0 0 0 0 1 1 1 0 0 0 0
0 0 0 0 0 0 0 0 0 0 0 0 0 0 0 0 0 0 0 1 1 0 0 0 0 0 0 0 0 0 0 0 0 0 0 0 0 0 0 0 0 0 0 0
0 0 0 0 0 0 0 0 0 0 0 0 0 0 0 0 0 0 0 0 0 0 0 0 0 0 0 0 0 0 0 0 0 0 0 0 0 0 0 0 0 0 0 0
0 0 0 0 0 0 0 0 0 0 0 0 0 0 0 0 0 0 0 0 0 0 0 0 0 0 0 0 0 0 0 0 0 0 0 0 0 0 0 0 0 0 0 0
0 0 0 0 0 0 0 0 0 0 0 0 0 0 0 0 0 0 0 0 0 0 0 0 0 0 0 0 0 0 0 0 0 0 0 0 0 0 0 0 0 0 0 0
0 0 0 0 0 0 0 0 0 0 0 0 0 0 0 0 0 0 0 0 0 0 0 0 0 0 0 0 0 0 0 0 0 0 0 0 0 0 0 0 0 0 0 0
0 0 0 0 0 0 0 0 0 0 0 0 0 0 0 0 0 0 0 0 0 0 0 0 0 0 0 0 0 0 0 0 0 0 0 0 0 0 0 0 0 0 0 0
0 0 0 0 0 0 0 0 0 0 0 0 0 0 0 0 0 0 0 0 0 0 0 0 0 0 0 0 0 0 0 0 0 0 0 0 0 0 0 0 0 0 0 0
0 0 0 0 0 0 0 0 0 0 0 0 0 0 0 0 0 0 0 0 0 0 0 0 0 0 0 0 0 0 0 0 0 0 0 0 0 0 0 0 0 0 0 0
0 0 0 0 0 0 0 0 0 0 0 0 0 0 0 0 0 0 0 0 0 0 0 0 0 0 0 0 0 0 0 0 0 0 0 0 0 0 0 0 0 0 0 0
0 0 0 0 0 0 0 0 0 0 0 0 0 0 0 0 0 0 0 0 0 0 0 0 0 0 0 0 0 0 0 0 0 0 0 0 0 0 0 0 0 0 0 0
0 0 0 0 0 0 0 0 0 0 0 0 0 0 0 0 0 0 0 0 0 0 0 0 0 0 0 0 0 0 0 0 0 0 0 0 0 0 0 0 0 0 0 0
0 0 0 0 0 0 0 0 0 0 0 0 0 0 0 0 0 0 0 0 0 0 0 0 0 0 0 0 0 0 0 0 0 0 0 0 0 0 0 0 0 0 0 0
0 0 0 0 0 0 0 0 0 0 0 0 0 0 0 0 0 0 0 0 0 0 0 0 0 0 0 0 0 0 0 0 0 0 0 0 0 0 0 0 0 0 0 0
0 0 0 0 0 0 0 0 0 0 0 0 0 0 0 0 0 0 0 0 0 0 0 0 0 0 0 0 0 0 0 0 0 0 0 0 0 0 0 0 0 0 0 0

GEFSCGP_con_prob3kmehi_240.txt.gz
EHI
0 0 0 0 0 0 0 0 0 0 0 0 0 1 2 3 1 1 2 4 4 5 6 7 7 5 4 6 9 10 12 14 17 17 17 14 10 8 6 4 2 2 3 3
0 0 0 0 0 0 0 0 0 0 0 0 0 1 2 3 2 2 3 4 4 4 6 7 8 7 5 6 9 10 11 14 17 18 18 17 13 10 6 4 3 3 3 3
0 0 0 0 0 0 0 0 0 0 0 0 0 0 1 2 2 2 3 3 3 3 4 7 9 7 5 7 10 11 12 14 16 17 17 16 15 11 6 3 4 4 3 3
0 0 0 0 0 0 0 0 0 0 0 0 0 0 1 1 1 1 2 2 1 1 3 6 7 4 3 6 9 12 15 16 15 15 14 14 13 10 5 4 4 4 3 3
0 0 0 0 0 0 0 0 0 0 0 0 0 0 0 0 0 0 1 1 1 0 2 4 4 4 3 5 8 10 14 16 15 14 14 12 10 8 6 5 5 4 3 4
0 0 0 0 0 0 0 0 0 0 0 0 0 0 0 1 1 0 0 1 1 2 4 5 5 5 5 6 8 9 11 12 13 13 11 8 7 6 6 6 5 4 4 5
0 0 0 0 0 0 0 0 0 0 0 0 0 0 1 2 1 0 0 1 3 5 7 8 7 7 7 8 10 11 10 9 9 9 8 6 5 6 6 6 5 4 4 5
0 0 0 0 0 0 0 0 0 0 0 0 0 1 2 1 1 0 0 1 3 6 8 8 7 7 9 10 11 11 9 7 7 6 5 5 6 6 6 6 5 5 4 3
0 0 0 0 0 0 0 0 0 0 0 0 0 0 1 0 0 0 0 1 3 6 7 7 7 8 10 10 11 9 7 6 6 6 4 4 5 6 6 5 5 4 3 1
0 0 0 0 0 0 0 0 0 0 0 0 0 0 0 0 0 0 1 2 5 6 6 6 6 7 8 8 7 6 4 3 5 5 4 2 3 3 3 3 4 3 1 1
0 0 0 0 0 0 0 0 0 0 0 0 0 0 1 0 0 1 2 3 5 6 6 6 4 4 4 5 4 4 2 1 2 3 2 1 1 1 1 1 2 2 1 2
0 0 0 0 0 0 0 0 0 0 0 0 0 0 0 0 1 2 4 4 4 6 6 4 2 1 2 2 2 1 0 0 0 1 1 0 0 0 0 1 2 1 1 2
0 0 0 0 0 0 0 0 0 0 0 0 0 0 0 0 1 2 3 3 4 6 5 2 0 1 1 1 0 0 0 0 0 0 0 0 0 0 0 1 1 1 1 2
0 0 0 0 0 0 0 0 0 0 0 0 0 0 0 0 0 1 3 3 4 6 5 2 0 0 0 0 0 0 0 0 0 0 0 0 0 0 0 0 0 0 0 1
0 0 0 0 0 0 0 0 0 0 0 0 0 0 0 0 0 1 3 4 4 6 4 1 0 0 0 0 0 0 0 0 0 0 0 0 0 0 0 0 0 0 0 0
0 0 0 0 0 0 0 0 0 0 0 0 0 0 0 0 0 1 2 4 5 6 4 1 0 0 0 0 0 0 0 0 0 0 0 0 0 0 0 0 0 0 0 0
0 0 0 0 0 0 0 0 0 0 0 0 0 0 0 0 0 0 1 2 4 5 4 2 1 1 0 0 0 0 0 0 0 0 0 0 0 0 0 0 0 0 0 0
0 0 0 0 0 0 0 0 0 0 0 0 0 0 0 0 0 0 0 1 3 5 5 3 3 2 0 0 0 0 0 0 0 0 0 0 0 0 0 0 0 0 0 0
0 0 0 0 0 0 0 0 0 0 0 0 0 0 0 0 0 0 0 1 3 5 5 5 4 2 0 0 0 0 0 0 0 0 0 0 0 0 0 0 0 0 0 0
0 0 0 0 0 0 0 0 0 0 0 0 0 0 0 0 0 0 1 3 5 6 5 5 4 2 1 0 0 0 0 0 0 0 0 0 0 0 0 0 0 0 0 0
0 0 0 0 0 0 0 0 0 0 0 0 0 0 0 0 0 1 2 5 7 7 6 5 3 2 1 0 0 0 0 0 0 0 0 0 0 0 0 0 0 0 0 0
0 0 0 0 0 0 0 0 0 0 0 0 0 0 0 0 0 1 3 5 7 7 6 4 2 1 1 0 0 0 0 0 0 0 0 0 0 0 0 1 1 0 0 0
0 0 0 0 0 0 0 0 0 0 0 0 0 0 0 0 0 1 2 4 6 6 4 3 1 1 0 0 0 0 0 0 0 0 0 0 0 0 1 2 2 1 0 0
0 0 0 0 0 0 0 0 0 0 0 0 0 0 0 0 0 1 2 4 4 4 3 3 3 2 1 0 0 0 0 0 0 0 0 0 0 0 1 2 3 2 0 0
0 0 0 0 0 0 0 0 0 0 0 0 0 0 0 0 0 1 2 3 3 3 3 3 3 2 1 0 0 0 0 0 0 0 0 0 0 0 0 1 2 1 0 0
0 0 0 0 0 0 0 0 0 0 0 0 0 0 0 0 0 0 1 3 3 3 3 3 3 1 0 0 0 0 0 0 0 0 0 0 0 0 0 0 1 0 0 0

GEFSCGP_con_prob3kmehi_246.txt.gz
EHI
0 0 0 0 0 0 0 0 0 0 0 0 0 1 3 4 4 4 5 7 11 17 22 27 28 29 34 37 36 36 37 36 32 28 27 27 27 24 17 14 17 19 17 14
0 0 0 0 0 0 0 0 0 0 0 0 0 1 3 4 4 4 4 5 9 16 23 28 29 29 32 34 34 34 36 37 36 33 30 28 27 22 16 14 16 17 15 12
0 0 0 0 0 0 0 0 0 0 0 0 0 1 3 5 5 4 2 3 6 13 23 28 29 29 30 31 32 32 35 37 38 37 32 29 26 21 15 15 15 14 11 10
0 0 0 0 0 0 0 0 0 0 0 0 0 1 3 5 6 4 2 2 5 11 19 25 26 26 27 30 32 32 34 36 36 35 32 29 25 20 16 16 15 12 10 9
0 0 0 0 0 0 0 0 0 0 0 0 0 0 2 5 5 3 3 4 7 11 16 21 23 23 25 29 34 35 34 33 32 31 30 27 23 18 16 16 14 11 9 9
0 0 0 0 1 1 1 0 0 0 0 0 0 0 1 3 3 2 2 5 8 11 14 18 21 22 25 29 34 35 33 31 29 27 26 22 19 17 17 16 14 11 10 10
0 0 0 0 1 1 1 0 0 0 0 0 0 1 1 2 2 2 3 6 8 10 13 15 18 23 27 30 32 32 30 28 26 24 22 19 18 17 16 15 14 13 12 11
0 0 0 0 0 0 0 0 0 0 0 0 1 2 3 2 3 4 5 7 8 10 12 14 17 23 29 31 31 29 26 25 23 22 22 20 18 15 13 13 13 13 13 11
0 0 0 0 0 0 0 0 0 0 0 0 1 3 4 4 5 5 5 6 8 10 12 14 17 23 28 30 29 26 23 20 20 20 19 19 17 13 10 10 10 11 11 9
0 0 0 0 0 0 0 0 1 0 0 0 0 2 4 5 6 5 4 5 8 10 13 16 20 24 28 28 25 22 19 16 15 15 15 14 13 11 9 7 7 9 8 7
0 0 0 0 0 0 0 0 0 0 0 0 0 1 3 5 6 6 6 8 11 13 16 19 22 25 26 24 18 15 14 12 10 10 11 11 10 9 7 6 5 7 7 6
0 0 0 0 0 0 0 0 0 0 1 1 1 1 4 5 6 7 8 12 16 17 18 20 20 21 21 18 13 10 10 8 7 7 8 8 7 7 6 5 5 6 6 5
0 0 0 0 0 0 0 0 0 0 1 1 2 3 4 5 6 7 9 12 16 18 19 19 18 18 18 15 12 9 7 6 4 5 5 6 6 6 6 6 6 5 4 4
1 1 0 0 0 0 0 0 0 0 0 1 2 3 4 4 5 6 7 9 12 16 19 19 19 19 18 16 12 8 6 5 4 4 4 4 4 4 5 6 5 4 3 3
0 0 0 0 0 0 0 0 0 0 0 0 1 3 4 4 4 4 4 5 9 13 18 19 19 19 19 16 12 8 6 5 3 2 2 2 1 1 2 3 3 2 2 3
1 1 0 0 0 0 0 0 0 0 0 0 1 3 5 5 4 3 3 4 8 12 16 19 19 19 19 17 13 9 7 5 2 1 1 1 0 0 0 1 1 2 2 3
4 4 2 0 0 0 0 0 0 0 0 0 1 3 5 5 4 3 3 5 7 10 15 18 19 19 19 19 16 11 7 3 1 0 0 0 0 0 0 0 1 2 3 5
8 7 3 0 0 0 0 0 0 0 0 0 0 1 3 3 3 3 4 6 8 10 15 18 19 18 19 19 17 12 6 3 1 0 0 0 0 0 0 1 2 3 5 6
8 8 4 0 0 0 0 0 0 0 0 0 0 1 2 2 3 5 7 9 10 13 17 18 18 18 19 19 16 12 7 3 1 0 0 0 0 0 0 1 3 5 7 8
5 6 3 0 0 0 0 0 0 0 1 2 2 3 4 5 6 8 11 12 13 16 18 18 18 18 19 19 18 14 9 4 2 0 0 0 0 0 0 2 4 6 8 8
3 4 3 1 0 0 0 0 1 3 5 5 5 6 8 9 9 10 12 13 14 16 17 17 18 19 19 20 18 15 11 7 4 1 0 0 0 0 1 3 6 7 8 8
3 3 3 3 2 1 1 1 4 7 7 6 5 6 8 9 8 9 11 13 14 15 16 16 18 19 19 18 17 16 13 10 6 3 1 1 1 0 1 3 5 6 7 7
3 4 4 4 3 2 2 3 5 6 5 4 3 2 3 4 5 7 10 12 13 15 15 15 16 17 17 16 16 15 14 11 7 5 4 5 3 2 2 3 4 4 4 5
2 4 5 3 2 1 1 2 3 3 2 1 1 0 0 1 3 5 7 10 13 14 15 14 13 14 15 15 14 14 12 10 8 6 5 5 3 2 3 4 3 2 3 4
2 3 4 3 2 0 0 1 1 1 1 0 0 0 0 0 2 3 6 9 12 13 13 13 13 13 13 12 12 12 11 10 8 6 4 3 2 1 2 3 2 2 2 2
3 3 4 4 3 1 0 0 0 0 0 0 0 0 0 1 2 3 5 9 12 13 13 13 14 13 12 11 11 12 11 9 8 6 4 2 1 0 1 1 1 1 1 1